• Join FlightAware (Why Join?)
  • Login
  • US Flag 
03:03PM EST


 

Airport Tracker/Info


-or-


 

Live Flight TrackerFlight Track Log ✈ EJA831 ✈ 16-Jan-2014 ✈ KIAD - KTEB

Flight Track Log - Related Links

Times and Time Zones

All times are in EST time to prevent confusion due to time zone crossing. See the EJA831 flight status page for this flight to view local times or setup timezone preferences in your user account.

Time Position Orientation Groundspeed Altitude Reporting Facility
EST Latitude Longitude Course Direction KTS MPH feet Rate Location/Type
09:06AM 39.0167 -77.4500 46° Northeast 235 270 3,900  Level Potomac TRACON
09:07AM 39.0833 -77.4500 360° North 271 312 6,300 2,350 Climbing Potomac TRACON
09:08AM 39.1667 -77.4333 North 308 354 8,600 1,350 Climbing Potomac TRACON
09:09AM 39.2167 -77.3333 57° Northeast 321 369 9,000 420 Climbing Potomac TRACON
09:11AM 39.2761 -77.1789 64° Northeast 332 382 9,700 2,178 Climbing Washington Center
09:12AM 39.3233 -76.8168 46° Northeast  Level Estimated
09:12AM 39.3189 -77.0831 60° Northeast 332 382 14,700  Level Washington Center
09:13AM 39.3206 -76.9572 89° East 332 382 15,000 942 Climbing Washington Center
09:14AM 39.2925 -76.8414 107° East 326 375 16,600 992 Climbing Washington Center
09:15AM 39.2644 -76.7175 106° East 331 381 17,000 200 Climbing Washington Center
09:16AM 39.2322 -76.5883 108° East 356 410 17,000  Level Washington Center
09:17AM 39.2000 -76.4461 106° East 368 423 17,000  Level Washington Center
09:18AM 39.1717 -76.3225 106° East 379 436 17,000  Level Washington Center
09:19AM 39.1869 -76.1886 82° East 375 432 17,000  Level Washington Center
09:20AM 39.2769 -76.0903 40° Northeast 362 417 17,000  Level Washington Center
09:21AM 39.3711 -75.9997 37° Northeast 378 435 17,000  Level Washington Center
09:22AM 39.4631 -75.9114 37° Northeast 398 458 17,000 -75 Level Washington Center
09:24AM 39.6167 -75.7667 36° Northeast 404 465 16,800 -841 Descending Philadelphia TRACON
09:25AM 39.7167 -75.6833 33° Northeast 386 444 14,800 -1,947 Descending Philadelphia TRACON
09:26AM 39.7833 -75.6167 38° Northeast 381 438 13,100 -783 Descending Philadelphia TRACON
09:27AM 39.9000 -75.5000 37° Northeast 388 447 13,000 -50 Descending Philadelphia TRACON
09:28AM 39.9667 -75.4500 30° Northeast 389 448 13,000  Level Philadelphia TRACON
09:29AM 40.0500 -75.3667 37° Northeast 387 445 13,000  Level Philadelphia TRACON
09:30AM 40.1333 -75.3000 31° Northeast 377 434 13,000 -805 Level Philadelphia TRACON
09:31AM 40.2500 -75.1833 37° Northeast 334 384 11,000 -1,481 Descending New York TRACON
09:32AM 40.3167 -75.1167 37° Northeast 328 377 9,200 -1,750 Descending New York TRACON
09:33AM 40.3833 -75.0167 49° Northeast 317 365 7,500 -1,350 Descending New York TRACON
09:34AM 40.4333 -74.9333 52° Northeast 291 335 6,500 -1,000 Descending New York TRACON
09:35AM 40.4667 -74.8667 57° Northeast 289 333 5,600 -1,050 Descending New York TRACON
09:36AM 40.5000 -74.7500 69° East 274 315 4,400 -1,000 Descending New York TRACON
09:37AM 40.5333 -74.6833 57° Northeast 263 303 3,600 -737 Descending New York TRACON
09:38AM 40.5667 -74.6000 62° Northeast 252 290 3,000 -300 Descending New York TRACON
09:39AM 40.6000 -74.5167 62° Northeast 259 298 3,000  Level New York TRACON
09:40AM 40.6333 -74.4333 62° Northeast 262 302 3,000 -158 Level New York TRACON
09:41AM 40.6667 -74.3667 57° Northeast 239 275 2,700 -400 Descending New York TRACON
09:42AM 40.7000 -74.3000 57° Northeast 189 217 2,200 -476 Descending New York TRACON
09:43AM 40.7333 -74.2500 49° Northeast 169 194 1,700 -350 Descending New York TRACON
09:44AM 40.7667 -74.2000 49° Northeast 169 194 1,500 -105 Descending New York TRACON
09:45AM 40.7833 -74.1500 66° East 169 194 1,500 -263 Level New York TRACON
09:46AM 40.8167 -74.1167 37° Northeast 133 153 1,000 -550 Descending New York TRACON
09:47AM 40.8333 -74.0833 57° Northeast 114 131 400 -600 Descending New York TRACON